(395946) = 2013 AF127

Discovered at Kitt Peak on 2007-12-18 by Spacewatch.

Orbit

Orbit type: Main Belt

Note: WebGL enabled browser required.

epoch2023-02-25.0
epoch JD2460000.5
perihelion date2023-02-02.58597
perihelion JD2459978.08597
argument of perihelion (°)82.99003
ascending node (°)66.38166
inclination (°)5.88792
eccentricity0.1052390
perihelion distance (AU)2.5728855
Tisserand w.r.t. Jupiter3.3
ΔV w.r.t. Earth (km/sec)10.2
semimajor axis (AU)2.8755004
mean anomaly (°)4.53058
mean daily motion (°/day)0.20213140
aphelion distance (AU)3.178
period (years)4.88
P-vector [x]-0.85569291
P-vector [y]0.42500168
P-vector [z]0.29523416
Q-vector [x]-0.50887672
Q-vector [y]-0.79470113
Q-vector [z]-0.33089968
absolute magnitude16.99
phase slope0.15
uncertainty0
referenceMPEC 2023-F189
observations used220
oppositions14
arc length (days)6914
first opposition used2004
last opposition used2023
residual rms (arc-secs)0.84
perturbers coarse indicatorM-v
perturbers precise indicator003Ek
first observation date used2004-04-20.0
last observation date used2023-03-26.0
computer nameMPCLINUX
JD of orbit computation2456819.606608
perihelion JD uncertainty (days)1.9059E-04
argument of perihelion uncertainty (°)6.1511E-05
ascending node uncertainty (°)4.4792E-05
inclination uncertainty (°)6.7268E-06
eccentricity uncertainty 4.4219E-08
perihelion distance uncertainty (AU)1.2812E-07
Minimum Orbit Intersection Distances (in AU)
for orbit epoch: 2460000.5, reference: E2023-FI9
Mercury2.20763
Venus1.85522
Earth1.59261
Mars0.91942
Jupiter1.84199
Saturn6.25975
Uranus15.862
Neptune26.7697

Observations

225 total observations over interval: 2004 04 20.32834 – 2023 03 26.292838
These data are available for download (format description).

Date (UT) J2000 RA J2000 Dec Magn Location Ref
2004 04 20.32834 14 22 12.95 -08 50 07.5 20.8 V 691 – Steward Observatory, Kitt Peak-Spacewatch MPS 457750
2004 04 20.35485 14 22 11.52 -08 50 03.2 20.8 V 691 – Steward Observatory, Kitt Peak-Spacewatch MPS 457750
2004 04 20.38401 14 22 09.97 -08 49 58.5 20.8 V 691 – Steward Observatory, Kitt Peak-Spacewatch MPS 457750
2006 10 02.30103 01 15 57.96 +00 38 04.8 21.6 V G96 – Mt. Lemmon Survey MPS 457750
2006 10 02.30662 01 15 57.67 +00 38 03.9 21.1 V G96 – Mt. Lemmon Survey MPS 457750
2006 10 02.31220 01 15 57.42 +00 38 02.4 21.1 V G96 – Mt. Lemmon Survey MPS 457750
2006 10 02.31782 01 15 57.09 +00 38 01.5 21.2 V G96 – Mt. Lemmon Survey MPS 457750
2007 12 18.46651 07 59 49.04 +26 20 04.1 20.9 V 691 – Steward Observatory, Kitt Peak-Spacewatch MPS 457750
2007 12 18.48181 07 59 48.52 +26 20 08.9 20.7 V 691 – Steward Observatory, Kitt Peak-Spacewatch MPS 457750
2007 12 18.50007 07 59 47.85 +26 20 13.2 20.8 V 691 – Steward Observatory, Kitt Peak-Spacewatch MPS 457750
2008 01 01.38666 07 49 46.09 +27 26 40.5 20.5 V G96 – Mt. Lemmon Survey MPS 457750
2008 01 01.39487 07 49 45.62 +27 26 43.0 20.8 V G96 – Mt. Lemmon Survey MPS 457750
2008 01 01.40309 07 49 45.19 +27 26 45.4 20.8 V G96 – Mt. Lemmon Survey MPS 457750
2008 01 01.41134 07 49 44.76 +27 26 47.8 20.8 V G96 – Mt. Lemmon Survey MPS 457750
2009 04 18.34647 15 22 41.77 -14 55 30.3 20.7 V 691 – Steward Observatory, Kitt Peak-Spacewatch MPS 457750
2009 04 18.36414 15 22 40.99 -14 55 28.8 21.0 V 691 – Steward Observatory, Kitt Peak-Spacewatch MPS 457750
2009 04 18.38181 15 22 40.23 -14 55 28.0 21.0 V 691 – Steward Observatory, Kitt Peak-Spacewatch MPS 457750
2009 04 30.27469 15 13 14.51 -14 37 03.2 20.6 V 691 – Steward Observatory, Kitt Peak-Spacewatch MPS 457750
2009 04 30.29239 15 13 13.57 -14 37 00.6 20.2 V 691 – Steward Observatory, Kitt Peak-Spacewatch MPS 457750
2009 04 30.30755 15 13 12.77 -14 36 59.1 20.3 V 691 – Steward Observatory, Kitt Peak-Spacewatch MPS 457750
2009 05 30.23990 14 48 16.63 -13 56 01.5 21.0 V G96 – Mt. Lemmon Survey MPS 457750
2009 05 30.24700 14 48 16.45 -13 56 01.5 20.0 V G96 – Mt. Lemmon Survey MPS 457750
2009 05 30.25615 14 48 16.02 -13 55 59.9 21.8 V G96 – Mt. Lemmon Survey MPS 457750
2009 05 30.26303 14 48 15.69 -13 56 00.3 21.1 V G96 – Mt. Lemmon Survey MPS 457750
2011 09 23.48282 02 06 31.036 +06 31 08.48 22.0 w F51 – Pan-STARRS 1, Haleakala MPS 457750
2011 09 23.49828 02 06 30.531 +06 31 05.77 22.2 w F51 – Pan-STARRS 1, Haleakala MPS 457750
2011 09 23.51391 02 06 30.022 +06 31 03.03 22.3 w F51 – Pan-STARRS 1, Haleakala MPS 457750
2011 10 19.28558 01 47 55.28 +05 02 34.1 20.9 V G96 – Mt. Lemmon Survey MPS 457750
2011 10 19.29081 01 47 54.99 +05 02 33.3 20.8 V G96 – Mt. Lemmon Survey MPS 457750
2011 10 19.29608 01 47 54.74 +05 02 32.2 20.8 V G96 – Mt. Lemmon Survey MPS 457750
2011 10 19.30138 01 47 54.45 +05 02 30.9 20.6 V G96 – Mt. Lemmon Survey MPS 457750
2011 10 30.25784 01 38 41.82 +04 27 11.7 21.3 V G96 – Mt. Lemmon Survey MPS 457750
2011 10 30.26534 01 38 41.46 +04 27 10.5 20.9 V G96 – Mt. Lemmon Survey MPS 457750
2011 10 30.27285 01 38 41.06 +04 27 09.3 21.6 V G96 – Mt. Lemmon Survey MPS 457750
2011 10 30.28043 01 38 40.63 +04 27 08.4 21.1 V G96 – Mt. Lemmon Survey MPS 457750
2013 01 03.56687 09 01 44.825 +24 35 01.38 20.8 i F51 – Pan-STARRS 1, Haleakala MPS 453233
2013 01 03.57984 09 01 44.350 +24 35 05.93 20.5 i F51 – Pan-STARRS 1, Haleakala MPS 453233
2013 01 03.60528 09 01 43.430 +24 35 13.90 20.4 r F51 – Pan-STARRS 1, Haleakala MPS 453233
2013 01 15.07933 08 53 37.07 +25 39 08.8 20.1 R J04 – ESA Optical Ground Station, Tenerife MPS 453233
2013 01 15.09091 08 53 36.49 +25 39 12.5 19.9 R J04 – ESA Optical Ground Station, Tenerife MPS 453233
2013 01 15.10248 08 53 35.90 +25 39 16.3 19.9 R J04 – ESA Optical Ground Station, Tenerife MPS 453233
2013 01 15.11405 08 53 35.25 +25 39 20.4 20.3 R J04 – ESA Optical Ground Station, Tenerife MPS 453233
2013 01 17.29824 08 51 45.24 +25 51 21.3 20.4 V 691 – Steward Observatory, Kitt Peak-Spacewatch MPS 453233
2013 01 17.31641 08 51 44.26 +25 51 27.4 20.3 V 691 – Steward Observatory, Kitt Peak-Spacewatch MPS 453233
2013 01 17.33458 08 51 43.30 +25 51 35.0 20.1 V 691 – Steward Observatory, Kitt Peak-Spacewatch MPS 453233
2013 02 12.28472 08 28 13.060 +27 40 06.95 20.6 w F51 – Pan-STARRS 1, Haleakala MPS 453927
2013 02 12.29791 08 28 12.402 +27 40 08.95 20.7 w F51 – Pan-STARRS 1, Haleakala MPS 453927
2013 02 12.31112 08 28 11.732 +27 40 10.96 20.6 w F51 – Pan-STARRS 1, Haleakala MPS 453927
2014 05 08.47430 15 57 41.838 -18 50 31.29 20.8 w F51 – Pan-STARRS 1, Haleakala MPS 513917
2014 05 08.48639 15 57 41.202 -18 50 30.68 20.9 w F51 – Pan-STARRS 1, Haleakala MPS 513917
2014 05 08.49852 15 57 40.550 -18 50 30.30 20.8 w F51 – Pan-STARRS 1, Haleakala MPS 513917
2014 05 08.51063 15 57 39.903 -18 50 29.85 20.9 w F51 – Pan-STARRS 1, Haleakala MPS 513917
2014 05 10.47109 15 55 58.363 -18 49 04.50 20.5 i F51 – Pan-STARRS 1, Haleakala MPS 513917
2014 05 10.48320 15 55 57.695 -18 49 03.78 20.3 i F51 – Pan-STARRS 1, Haleakala MPS 513917
2014 05 10.50742 15 55 56.384 -18 49 02.85 20.1 i F51 – Pan-STARRS 1, Haleakala MPS 513917
2014 05 20.38567 15 47 03.149 -18 40 45.63 20.5 w F51 – Pan-STARRS 1, Haleakala MPS 516435
2014 05 20.39697 15 47 02.509 -18 40 45.16 20.5 w F51 – Pan-STARRS 1, Haleakala MPS 516435
2014 05 20.40827 15 47 01.875 -18 40 44.58 20.5 w F51 – Pan-STARRS 1, Haleakala MPS 516435
2014 05 20.41956 15 47 01.232 -18 40 43.87 20.6 w F51 – Pan-STARRS 1, Haleakala MPS 516435
2014 05 27.32599 15 40 48.21 -18 34 35.2 20.4 V G96 – Mt. Lemmon Survey MPS 517891
2014 05 27.33108 15 40 47.95 -18 34 34.9 20.5 V G96 – Mt. Lemmon Survey MPS 517891
2014 05 27.33618 15 40 47.61 -18 34 34.6 20.4 V G96 – Mt. Lemmon Survey MPS 517891
2014 05 27.34128 15 40 47.36 -18 34 33.9 20.5 V G96 – Mt. Lemmon Survey MPS 517891
2015 08 10.42365 21 42 12.722 -22 32 38.96 21.4 w F51 – Pan-STARRS 1, Haleakala MPS 621104
2015 08 10.43466 21 42 12.159 -22 32 42.13 21.3 w F51 – Pan-STARRS 1, Haleakala MPS 621104
2015 08 10.44568 21 42 11.596 -22 32 45.24 21.3 w F51 – Pan-STARRS 1, Haleakala MPS 621104
2015 08 10.45671 21 42 11.012 -22 32 48.18 21.4 w F51 – Pan-STARRS 1, Haleakala MPS 621104
2015 08 11.42635 21 41 22.559 -22 37 16.46 21.3 w F51 – Pan-STARRS 1, Haleakala MPS 621104
2015 08 11.43773 21 41 21.984 -22 37 19.57 21.2 w F51 – Pan-STARRS 1, Haleakala MPS 621104
2015 08 11.44912 21 41 21.397 -22 37 22.68 21.2 w F51 – Pan-STARRS 1, Haleakala MPS 621104
2015 08 11.46055 21 41 20.798 -22 37 25.77 21.2 w F51 – Pan-STARRS 1, Haleakala MPS 621104
2016 10 21.30902 02 30 31.89 +09 57 56.6 21.0 V G96 – Mt. Lemmon Survey MPS 739647
2016 10 21.31376 02 30 31.64 +09 57 55.6 21.0 V G96 – Mt. Lemmon Survey MPS 739647
2016 10 21.32012 02 30 31.30 +09 57 55.3 21.2 V G96 – Mt. Lemmon Survey MPS 739647
2016 10 21.32483 02 30 31.08 +09 57 53.6 20.9 V G96 – Mt. Lemmon Survey MPS 739647
2016 11 02.26168 02 20 11.52 +09 23 43.2 20.4 V G96 – Mt. Lemmon Survey MPS 742021
2016 11 02.26758 02 20 11.21 +09 23 42.6 20.3 V G96 – Mt. Lemmon Survey MPS 742021
2016 11 02.27348 02 20 10.92 +09 23 40.9 21.3 V G96 – Mt. Lemmon Survey MPS 742021
2016 11 02.27946 02 20 10.53 +09 23 40.6 20.9 V G96 – Mt. Lemmon Survey MPS 742022
2016 11 19.25913 02 06 20.51 +08 46 36.2 21.3 V G96 – Mt. Lemmon Survey MPS 747290
2016 11 19.26349 02 06 20.25 +08 46 36.3 21.6 V G96 – Mt. Lemmon Survey MPS 747290
2016 11 19.26795 02 06 20.12 +08 46 35.5 21.3 V G96 – Mt. Lemmon Survey MPS 747290
2016 11 19.27237 02 06 19.93 +08 46 34.1 20.7 V G96 – Mt. Lemmon Survey MPS 747290
2018 01 13.36817 10 02 37.53 +20 46 35.2 20.9 G G96 – Mt. Lemmon Survey MPS 861519
2018 01 13.37336 10 02 37.34 +20 46 36.8 21.2 G G96 – Mt. Lemmon Survey MPS 861519
2018 01 13.38004 10 02 37.19 +20 46 38.9 20.9 G G96 – Mt. Lemmon Survey MPS 861519
2018 01 13.38522 10 02 37.02 +20 46 40.7 20.8 G G96 – Mt. Lemmon Survey MPS 861519
2018 01 14.56274 10 02 06.021 +20 53 05.48 20.9 w F51 – Pan-STARRS 1, Haleakala MPS 861519
2018 01 14.57499 10 02 05.657 +20 53 09.48 20.7 w F51 – Pan-STARRS 1, Haleakala MPS 861519
2018 01 14.58734 10 02 05.302 +20 53 13.53 20.8 w F51 – Pan-STARRS 1, Haleakala MPS 861519
